SCP
0 0 0 0 0 0 0 0 0 0 0 0 0 0 -0 -0 0 0 0 0 0 0 0 0 0 0 0 0 0 0 0 0
0 0 0 0 0 0 0 0 0 0 0 0 0 0 -0 -0 0 0 0 0 0 0 0 0 0 0 0 0 0 0 0 0
0 0 0 0 0 0 0 -0 -0 -0 0 -0 -0 0 0 0 0 0 0 0 0 0 0 0 0 0 0 0 0 0 0 0
0 0 0 0 0 0 0 0 0 0 -0 -0 0 0 0 0 0 0 -0 -0 -0 0 0 0 0 0 0 0 0 0 0 0
0 0 0 0 0 0 0 0 0 0 0 -0 -0 -0 -0 0 0 0 0 0 -0 -0 0 0 0 0 0 0 0 0 0 0
-0 -0 0 0 0 0 0 0 0 0 -0 -0 -0 -0 -0 -0 -0 0 -0 0 0 0 -0 0 0 0 0 0 0 0 0 0
0 -0 -0 -0 -0 -0 -0 -0 -0 0 -0 -0 -0 -0 -0 -0 -0 -0 -0 -0 -0 0 0 -0 -0 0 0 0 0 0 0 0
0 0 -0 -0 -0 -0 -0 -0 -0 -0 -0 -0 -0 -0 -0 0 -0 -0 -0 -0 -0 -0 -0 0 0 -0 -0 0 0 0 0 0
0 -0 -0 -0 -0 -0 -0 -0 -0 -0 -0 -0 -0 -0 0 0 0 0 -0 0 0 0 0 0 0 -0 -0 -0 0 0 0 0
-0 -0 -0 -0 -0 -0 -0 -0 -0 -0 0 -0 0 -0 -0 -0 -0 0 0 0 0 0 0 0 0 0 0 -0 0 0 0 0
0 0 0 0 0 0 -0 -0 0 0 0 0 0 0 0 0 0 -0 -0 -0 -0 0 0 0 0 0 0 0 0 0 0 0
0 0 0 0 0 0 0 0 0 0 0 0 0 0 0 0 0 -0 -0 -0 0 0 0 0 0 0 0 0 0 0 0 0
0 0 0 0 0 0 0 0 0 0 0 0 0 0 0 0 0 0 -0 -0 0 0 0 -0 0 -0 0 0 0 0 0 0
0 0 0 0 0 0 0 0 0 0 0 0 0 0 0 0 0 0 0 0 0 0 0 0 0 0 -0 0 0 0 0 0
0 0 0 0 0 0 0 0 0 0 0 0 0 0 0 0 0 0 0 0 0 0 0 0 0 0 0 0 0 0 0 0
0 0 0 0 0 0 0 0 0 0 0 0 0 0 0 0 0 0 0 0 0 0 0 0 0 0 0 0 0 0 0 0
0 0 0 0 0 0 0 0 0 0 0 0 0 0 0 0 0 0 0 0 0 0 0 0 0 0 0 0 0 0 -0 0
0 0 0 0 0 0 0 0 0 0 0 0 0 0 0 0 0 0 0 0 0 0 0 0 0 0 0 0 0 0 0 0
0 0 0 0 0 0 0 0 0 0 0 0 0 0 0 0 0 0 0 0 0 0 0 0 0 0 0 0 0 0 0 0
0 0 0 0 0 0 0 0 0 0 0 0 0 0 0 0 0 0 0 0 0 0 0 0 0 0 0 0 0 0 0 0
Wind_Speed_500mb
35 40 46 47 50 51 49 53 53 51 51 54 54 45 35 31 36 38 40 46 51 58 64 72 89 105 108 114 109 109 108 108
35 37 42 47 47 48 53 55 52 48 48 47 50 52 50 43 36 39 44 44 47 55 60 69 79 89 103 113 116 114 112 113
27 32 34 39 44 46 50 54 58 57 51 49 46 46 51 52 49 44 40 46 54 56 63 67 74 82 94 105 121 122 117 118
24 32 33 36 40 46 50 52 53 55 59 59 52 47 45 49 55 52 50 50 44 47 63 67 76 81 89 94 109 124 120 119
23 29 32 37 45 52 54 57 62 59 57 61 62 62 61 51 44 51 55 55 57 55 53 55 63 77 86 96 100 111 118 125
21 21 26 32 40 41 46 55 59 64 67 65 62 62 65 66 64 57 49 52 58 59 61 61 63 70 78 88 97 104 111 119
29 29 28 29 36 47 49 50 54 58 63 68 76 75 70 72 72 71 69 66 60 61 62 65 65 71 75 75 82 95 109 118
40 41 39 40 52 54 58 60 58 56 56 64 74 80 83 81 80 76 78 76 72 71 66 63 67 62 67 70 74 79 94 109
45 49 49 55 63 64 70 71 70 69 71 73 75 80 85 88 89 89 87 86 86 81 77 76 77 67 57 61 70 80 86 99
60 63 69 70 72 80 87 88 87 85 83 83 84 83 84 88 92 97 101 100 98 97 90 84 84 81 67 56 63 80 89 92
70 74 72 76 82 92 95 93 95 93 96 97 96 97 97 97 99 100 102 111 111 108 105 96 92 83 82 63 62 77 88 89
66 70 72 78 78 89 95 98 88 88 99 102 103 111 117 118 116 114 113 113 116 121 117 109 98 90 83 80 69 74 81 91
66 71 80 83 86 98 108 98 96 97 104 110 110 109 112 114 124 124 121 118 120 120 125 120 111 97 87 81 82 71 79 88
75 83 89 96 94 94 111 101 109 115 120 115 106 103 100 96 100 93 104 104 114 105 102 118 113 104 91 87 80 77 83 90
80 90 102 106 105 101 105 103 106 110 112 103 93 93 88 84 81 81 82 83 84 81 85 89 84 100 91 90 81 72 72 84
83 93 101 97 97 95 97 95 95 93 91 88 84 83 82 80 79 78 80 77 81 82 73 73 78 81 66 71 74 63 66 76
84 86 90 91 95 95 89 80 82 85 83 81 83 84 83 84 88 79 77 79 83 89 91 102 97 83 72 65 59 51 46 75
76 78 83 88 92 90 77 69 72 78 80 81 79 81 82 82 82 87 81 71 73 74 78 85 91 83 78 70 63 56 48 86
70 75 80 84 83 71 67 68 70 74 78 81 81 80 80 81 81 80 78 78 76 60 53 54 60 58 69 68 64 59 58 85
67 73 75 76 78 72 70 69 73 75 79 79 81 82 82 83 83 81 78 74 76 69 56 43 41 48 55 54 71 62 62 73
Wind_Direction_500mb
17 13 7 7 2 2 6 10 10 4 4 8 11 1 340 325 311 299 292 286 279 272 266 260 252 247 243 242 238 236 234 233
6 6 360 358 2 0 358 359 4 8 2 358 358 358 3 355 331 310 299 291 282 276 270 267 261 253 246 244 242 238 236 235
6 3 0 356 355 357 359 357 358 358 355 357 354 351 352 351 350 344 319 298 289 279 270 265 262 260 253 246 245 241 236 237
6 5 360 357 355 353 353 353 353 353 351 348 348 348 345 342 342 341 335 333 312 286 277 272 267 261 258 255 250 247 244 239
359 353 350 347 344 341 342 343 343 345 344 343 343 344 343 341 333 330 332 331 328 324 299 278 273 267 262 259 254 252 248 245
339 324 333 336 336 332 330 332 334 335 336 336 334 334 334 333 334 332 326 319 320 320 319 309 287 275 270 264 260 256 254 250
331 324 310 314 319 325 326 326 326 322 322 324 325 327 329 328 326 326 326 324 314 301 307 306 306 292 277 271 266 262 256 252
325 320 313 310 319 321 319 316 314 311 310 314 316 317 318 320 321 322 322 321 320 316 308 297 297 300 288 272 266 264 261 257
321 317 315 310 313 315 316 313 308 305 302 304 306 306 308 310 312 313 313 314 313 313 310 305 296 292 294 276 265 262 259 260
322 316 315 315 315 315 314 313 310 306 304 303 302 299 299 300 302 304 305 305 305 305 306 304 297 294 288 282 268 261 257 255
312 311 310 311 312 311 311 311 309 309 306 304 301 298 296 294 293 294 295 298 299 298 297 298 297 295 289 280 268 262 258 256
308 308 308 310 310 308 308 306 307 304 302 300 298 298 296 296 293 291 290 289 289 291 291 290 290 291 287 281 266 263 255 246
305 304 305 307 308 307 305 307 304 300 297 296 295 293 293 293 292 291 289 287 284 284 285 286 286 289 286 281 275 263 249 244
305 306 307 309 310 306 305 303 300 298 296 295 293 291 290 288 288 286 287 286 284 283 281 281 281 283 284 280 274 269 243 241
309 309 309 310 310 307 305 305 302 299 298 297 295 293 290 286 282 281 279 278 276 275 273 274 274 276 276 275 275 268 256 237
312 312 311 313 312 313 311 311 308 305 301 299 296 294 292 286 283 279 275 272 274 271 269 270 269 267 271 271 271 268 258 238
314 315 318 318 315 317 319 317 312 304 301 298 296 294 292 290 288 284 278 275 271 269 267 268 263 266 265 262 264 259 249 230
319 321 321 321 321 321 318 314 309 306 306 302 296 292 290 288 287 288 291 284 278 272 267 263 262 260 257 261 257 257 237 225
322 325 329 325 319 327 322 318 315 314 312 308 301 295 292 289 287 286 286 288 289 286 271 265 262 255 249 251 253 249 229 222
328 335 329 327 334 333 327 321 317 315 312 309 306 303 299 294 289 285 284 283 285 293 292 262 263 259 260 242 234 243 232 220
Wind_Speed_850mb
35 40 46 47 50 51 49 53 53 51 51 54 54 45 35 31 36 38 40 46 51 58 64 72 89 105 108 114 109 109 108 108
35 37 42 47 47 48 53 55 52 48 48 47 50 52 50 43 36 39 44 44 47 55 60 69 79 89 103 113 116 114 112 113
27 32 34 39 44 46 50 54 58 57 51 49 46 46 51 52 49 44 40 46 54 56 63 67 74 82 94 105 121 122 117 118
24 32 33 36 40 46 50 52 53 55 59 59 52 47 45 49 55 52 50 50 44 47 63 67 76 81 89 94 109 124 120 119
23 29 32 37 45 52 54 57 62 59 57 61 62 62 61 51 44 51 55 55 57 55 53 55 63 77 86 96 100 111 118 125
21 21 26 32 40 41 46 55 59 64 67 65 62 62 65 66 64 57 49 52 58 59 61 61 63 70 78 88 97 104 111 119
29 29 28 29 36 47 49 50 54 58 63 68 76 75 70 72 72 71 69 66 60 61 62 65 65 71 75 75 82 95 109 118
40 41 39 40 52 54 58 60 58 56 56 64 74 80 83 81 80 76 78 76 72 71 66 63 67 62 67 70 74 79 94 109
45 49 49 55 63 64 70 71 70 69 71 73 75 80 85 88 89 89 87 86 86 81 77 76 77 67 57 61 70 80 86 99
60 63 69 70 72 80 87 88 87 85 83 83 84 83 84 88 92 97 101 100 98 97 90 84 84 81 67 56 63 80 89 92
70 74 72 76 82 92 95 93 95 93 96 97 96 97 97 97 99 100 102 111 111 108 105 96 92 83 82 63 62 77 88 89
66 70 72 78 78 89 95 98 88 88 99 102 103 111 117 118 116 114 113 113 116 121 117 109 98 90 83 80 69 74 81 91
66 71 80 83 86 98 108 98 96 97 104 110 110 109 112 114 124 124 121 118 120 120 125 120 111 97 87 81 82 71 79 88
75 83 89 96 94 94 111 101 109 115 120 115 106 103 100 96 100 93 104 104 114 105 102 118 113 104 91 87 80 77 83 90
80 90 102 106 105 101 105 103 106 110 112 103 93 93 88 84 81 81 82 83 84 81 85 89 84 100 91 90 81 72 72 84
83 93 101 97 97 95 97 95 95 93 91 88 84 83 82 80 79 78 80 77 81 82 73 73 78 81 66 71 74 63 66 76
84 86 90 91 95 95 89 80 82 85 83 81 83 84 83 84 88 79 77 79 83 89 91 102 97 83 72 65 59 51 46 75
76 78 83 88 92 90 77 69 72 78 80 81 79 81 82 82 82 87 81 71 73 74 78 85 91 83 78 70 63 56 48 86
70 75 80 84 83 71 67 68 70 74 78 81 81 80 80 81 81 80 78 78 76 60 53 54 60 58 69 68 64 59 58 85
67 73 75 76 78 72 70 69 73 75 79 79 81 82 82 83 83 81 78 74 76 69 56 43 41 48 55 54 71 62 62 73
Wind_Direction_850mb
17 13 7 7 2 2 6 10 10 4 4 8 11 1 340 325 311 299 292 286 279 272 266 260 252 247 243 242 238 236 234 233
6 6 360 358 2 0 358 359 4 8 2 358 358 358 3 355 331 310 299 291 282 276 270 267 261 253 246 244 242 238 236 235
6 3 0 356 355 357 359 357 358 358 355 357 354 351 352 351 350 344 319 298 289 279 270 265 262 260 253 246 245 241 236 237
6 5 360 357 355 353 353 353 353 353 351 348 348 348 345 342 342 341 335 333 312 286 277 272 267 261 258 255 250 247 244 239
359 353 350 347 344 341 342 343 343 345 344 343 343 344 343 341 333 330 332 331 328 324 299 278 273 267 262 259 254 252 248 245
339 324 333 336 336 332 330 332 334 335 336 336 334 334 334 333 334 332 326 319 320 320 319 309 287 275 270 264 260 256 254 250
331 324 310 314 319 325 326 326 326 322 322 324 325 327 329 328 326 326 326 324 314 301 307 306 306 292 277 271 266 262 256 252
325 320 313 310 319 321 319 316 314 311 310 314 316 317 318 320 321 322 322 321 320 316 308 297 297 300 288 272 266 264 261 257
321 317 315 310 313 315 316 313 308 305 302 304 306 306 308 310 312 313 313 314 313 313 310 305 296 292 294 276 265 262 259 260
322 316 315 315 315 315 314 313 310 306 304 303 302 299 299 300 302 304 305 305 305 305 306 304 297 294 288 282 268 261 257 255
312 311 310 311 312 311 311 311 309 309 306 304 301 298 296 294 293 294 295 298 299 298 297 298 297 295 289 280 268 262 258 256
308 308 308 310 310 308 308 306 307 304 302 300 298 298 296 296 293 291 290 289 289 291 291 290 290 291 287 281 266 263 255 246
305 304 305 307 308 307 305 307 304 300 297 296 295 293 293 293 292 291 289 287 284 284 285 286 286 289 286 281 275 263 249 244
305 306 307 309 310 306 305 303 300 298 296 295 293 291 290 288 288 286 287 286 284 283 281 281 281 283 284 280 274 269 243 241
309 309 309 310 310 307 305 305 302 299 298 297 295 293 290 286 282 281 279 278 276 275 273 274 274 276 276 275 275 268 256 237
312 312 311 313 312 313 311 311 308 305 301 299 296 294 292 286 283 279 275 272 274 271 269 270 269 267 271 271 271 268 258 238
314 315 318 318 315 317 319 317 312 304 301 298 296 294 292 290 288 284 278 275 271 269 267 268 263 266 265 262 264 259 249 230
319 321 321 321 321 321 318 314 309 306 306 302 296 292 290 288 287 288 291 284 278 272 267 263 262 260 257 261 257 257 237 225
322 325 329 325 319 327 322 318 315 314 312 308 301 295 292 289 287 286 286 288 289 286 271 265 262 255 249 251 253 249 229 222
328 335 329 327 334 333 327 321 317 315 312 309 306 303 299 294 289 285 284 283 285 293 292 262 263 259 260 242 234 243 232 220